Location: Bukit Lungun
(2.6833°N, 113.9667°E)
Time: 20:17:21
(UTC+00:00)

Cosmos 1190 Rocket - Pass Details

Date: 02 March 2021
Orbit: 757 x 779 km, 74.1° (Epoch: 18 April)

Event Time Altitude Azimuth Distance (km) Brightness Sun altitude
Rises 21:41:31 0° 196° (SSW) 3,244 7.2 -13.9°
Reaches altitude 10° 21:43:54 10° 198° (SSW) 2,319 6.4 -13.3°
Maximum altitude 21:49:09 74° 282° (WNW) 808 3.9 -12.0°
Drops below altitude 10° 21:54:25 10° 7° (N) 2,320 6.5 -10.7°
Sets 21:56:48 0° 9° (N) 3,246 7.3 -10.1°
